Regional Weather Roundup
Issued by NWS

Home | Current Version | Previous Version | Graphics & Text | Print | Product List | Glossary Off
Versions: 1 2 3 4 5 6 7 8 9 10 11 12 13 14 15 16 17 18 19 20 21 22 23 24 25 26 27 28 29 30 31 32 33 34 35 36 37 38 39 40 41 42 43 44 45 46 47 48 49 50

000
ASUS43 KTOP 240859
RWRKS

WEATHER ROUNDUP FOR KANSAS
NATIONAL WEATHER SERVICE GOODLAND KS
400 AM CDT TUE APR 24 2018

NOTE:  "FAIR" INDICATES FEW OR NO CLOUDS BELOW 12,000 FEET WITH NO
SIGNIFICANT WEATHER AND/OR OBSTRUCTIONS TO VISIBILITY.

KSZ001>006-013>018-027>032-041>047-241000-
NORTHWEST KANSAS

CITY           SKY/WX    TMP DP  RH WIND       PRES   REMARKS
GOODLAND       LGT RAIN  49  47  93 NW14      30.21R FOG
HAYS           CLEAR     46  41  82 NE5       30.12F
HILL CITY      CLEAR     44  41  89 CALM      30.13S
RUSSELL        CLOUDY    50  40  68 CALM      30.10F
$$

KSZ061>065-074>080-084>089-241000-
SOUTHWEST KANSAS

CITY           SKY/WX    TMP DP  RH WIND       PRES   REMARKS
DODGE CITY     CLEAR     47  41  80 NE3       30.13R
GARDEN CITY    PTCLDY    47  42  83 NE9       30.12R
GREAT BEND     CLEAR     44  42  93 N5        30.12R
LIBERAL        CLEAR     50  44  80 SE9       30.08R
$$

KSZ066>073-081>083-090>101-241000-
SOUTHEAST KANSAS

CITY           SKY/WX    TMP DP  RH WIND       PRES   REMARKS
CHANUTE        CLEAR     44  41  89 NW5       30.07R
COFFEYVILLE    CLEAR     47  44  90 NW3       30.06R
HUTCHINSON     CLEAR     45  42  89 W5        30.09R
MEDICINE LODGE   N/A     47  44  90 N5        30.08R
NEWTON         CLEAR     51  38  60 N8        30.09S
PARSONS        CLEAR     43  41  93 CALM      30.07R
WICHITA INTL   PTCLDY    52  44  74 N6        30.07S
WICHITA JABRA  CLEAR     53  40  61 N6        30.08R
WICHITA MCCONL CLEAR     51  43  72 N6        30.07S
WINFIELD       PTCLDY    47  46  97 CALM      30.08R
$$

KSZ007>012-019>026-033>040-048>060-102>105-241000-
NORTHEAST KANSAS

CITY           SKY/WX    TMP DP  RH WIND       PRES   REMARKS
CONCORDIA      CLEAR     49  35  58 NW5       30.12R
EMPORIA        CLEAR     47  40  76 NW3       30.08R
LAWRENCE       CLEAR     40  36  86 NW8       30.09R
MANHATTAN      CLOUDY    42  36  79 CALM      30.09S
OLATHE IND     CLEAR     48  36  63 CALM      30.08R
OLATHE EXE     CLEAR     51  34  52 NW7       30.07R
SALINA         CLEAR     48  41  76 NW6       30.10S
TOPEKA BILLARD CLEAR     43  40  89 CALM      30.09R
TOPEKA FORBES  CLEAR     44  36  73 CALM      30.09R
$$




USA.gov is the U.S. government's official web portal to all federal, state and local government web resources and services.